Year,Month,Day,Hour,Minute,Value (Times are PST for temperature in C)
2017,05,23,00,00,14.30
2017,05,23,00,01,14.30
2017,05,23,00,02,14.30
2017,05,23,00,03,14.30
2017,05,23,00,04,14.30
2017,05,23,00,05,14.20
2017,05,23,00,06,14.20
2017,05,23,00,07,14.20
2017,05,23,00,08,14.20
2017,05,23,00,09,14.20
2017,05,23,00,10,14.20
2017,05,23,00,11,14.20
2017,05,23,00,12,14.10
2017,05,23,00,13,14.10
2017,05,23,00,14,14.10
2017,05,23,00,15,14.00
2017,05,23,00,16,14.00
2017,05,23,00,17,13.90
2017,05,23,00,18,13.80
2017,05,23,00,19,13.80
2017,05,23,00,20,13.80
2017,05,23,00,21,13.80
2017,05,23,00,22,13.70
2017,05,23,00,23,13.70
2017,05,23,00,24,13.70
2017,05,23,00,25,13.70
2017,05,23,00,26,13.70
2017,05,23,00,27,13.70
2017,05,23,00,28,13.70
2017,05,23,00,29,13.70
2017,05,23,00,30,13.70
2017,05,23,00,31,13.70
2017,05,23,00,32,13.70
2017,05,23,00,33,13.70
2017,05,23,00,34,13.70
2017,05,23,00,35,13.60
2017,05,23,00,36,13.60
2017,05,23,00,37,13.60
2017,05,23,00,38,13.50
2017,05,23,00,39,13.50
2017,05,23,00,40,13.50
2017,05,23,00,41,13.50
2017,05,23,00,42,13.40
2017,05,23,00,43,13.40
2017,05,23,00,44,13.40
2017,05,23,00,45,13.40
2017,05,23,00,46,13.40
2017,05,23,00,47,13.50
2017,05,23,00,48,13.50
2017,05,23,00,49,13.50
2017,05,23,00,50,13.50
2017,05,23,00,51,13.50
2017,05,23,00,52,13.50
2017,05,23,00,53,13.50
2017,05,23,00,54,13.50
2017,05,23,00,55,13.50
2017,05,23,00,56,13.40
2017,05,23,00,57,13.40
2017,05,23,00,58,13.40
2017,05,23,00,59,13.40
2017,05,23,01,00,13.40
2017,05,23,01,01,13.40
2017,05,23,01,02,13.40
2017,05,23,01,03,13.40
2017,05,23,01,04,13.30
2017,05,23,01,05,13.30
2017,05,23,01,06,13.30
2017,05,23,01,07,13.20
2017,05,23,01,08,13.20
2017,05,23,01,09,13.20
2017,05,23,01,10,13.20
2017,05,23,01,11,13.10
2017,05,23,01,12,13.10
2017,05,23,01,13,13.10
2017,05,23,01,14,13.00
2017,05,23,01,15,13.00
2017,05,23,01,16,12.90
2017,05,23,01,17,12.90
2017,05,23,01,18,12.90
2017,05,23,01,19,12.90
2017,05,23,01,20,12.90
2017,05,23,01,21,12.90
2017,05,23,01,22,12.90
2017,05,23,01,23,12.90
2017,05,23,01,24,12.90
2017,05,23,01,25,12.90
2017,05,23,01,26,12.90
2017,05,23,01,27,12.90
2017,05,23,01,28,12.90
2017,05,23,01,29,12.90
2017,05,23,01,30,12.90
2017,05,23,01,31,12.90
2017,05,23,01,32,12.90
2017,05,23,01,33,12.90
2017,05,23,01,34,12.90
2017,05,23,01,35,12.90
2017,05,23,01,36,12.90
2017,05,23,01,37,12.80
2017,05,23,01,38,12.80
2017,05,23,01,39,12.80
2017,05,23,01,40,12.80
2017,05,23,01,41,12.80
2017,05,23,01,42,12.80
2017,05,23,01,43,12.70
2017,05,23,01,44,12.60
2017,05,23,01,45,12.50
2017,05,23,01,46,12.50
2017,05,23,01,47,12.40
2017,05,23,01,48,12.40
2017,05,23,01,49,12.40
2017,05,23,01,50,12.40
2017,05,23,01,51,12.30
2017,05,23,01,52,12.30
2017,05,23,01,53,12.30
2017,05,23,01,54,12.30
2017,05,23,01,55,12.30
2017,05,23,01,56,12.30
2017,05,23,01,57,12.30
2017,05,23,01,58,12.30
2017,05,23,01,59,12.30
2017,05,23,02,00,12.30
2017,05,23,02,01,12.30
2017,05,23,02,02,12.30
2017,05,23,02,03,12.30
2017,05,23,02,04,12.30
2017,05,23,02,05,12.30
2017,05,23,02,06,12.30
2017,05,23,02,07,12.30
2017,05,23,02,08,12.20
2017,05,23,02,09,12.20
2017,05,23,02,10,12.20
2017,05,23,02,11,12.20
2017,05,23,02,12,12.20
2017,05,23,02,13,12.20
2017,05,23,02,14,12.20
2017,05,23,02,15,12.10
2017,05,23,02,16,12.10
2017,05,23,02,17,12.10
2017,05,23,02,18,12.10
2017,05,23,02,19,12.00
2017,05,23,02,20,12.00
2017,05,23,02,21,12.00
2017,05,23,02,22,11.90
2017,05,23,02,23,11.90
2017,05,23,02,24,11.90
2017,05,23,02,25,11.90
2017,05,23,02,26,11.90
2017,05,23,02,27,11.90
2017,05,23,02,28,11.90
2017,05,23,02,29,11.90
2017,05,23,02,30,11.90
2017,05,23,02,31,11.90
2017,05,23,02,32,11.90
2017,05,23,02,33,11.90
2017,05,23,02,34,11.90
2017,05,23,02,35,11.80
2017,05,23,02,36,11.80
2017,05,23,02,37,11.80
2017,05,23,02,38,11.80
2017,05,23,02,39,11.80
2017,05,23,02,40,11.80
2017,05,23,02,41,11.80
2017,05,23,02,42,11.80
2017,05,23,02,43,11.80
2017,05,23,02,44,11.80
2017,05,23,02,45,11.80
2017,05,23,02,46,11.80
2017,05,23,02,47,11.80
2017,05,23,02,48,11.80
2017,05,23,02,49,11.80
2017,05,23,02,50,11.80
2017,05,23,02,51,11.80
2017,05,23,02,52,11.80
2017,05,23,02,53,11.80
2017,05,23,02,54,11.80
2017,05,23,02,55,11.80
2017,05,23,02,56,11.80
2017,05,23,02,57,11.80
2017,05,23,02,58,11.80
2017,05,23,02,59,11.80
2017,05,23,03,00,11.80
2017,05,23,03,01,11.70
2017,05,23,03,02,11.70
2017,05,23,03,03,11.70
2017,05,23,03,04,11.70
2017,05,23,03,05,11.70
2017,05,23,03,06,11.70
2017,05,23,03,07,11.70
2017,05,23,03,08,11.70
2017,05,23,03,09,11.70
2017,05,23,03,10,11.70
2017,05,23,03,11,11.70
2017,05,23,03,12,11.70
2017,05,23,03,13,11.70
2017,05,23,03,14,11.70
2017,05,23,03,15,11.70
2017,05,23,03,16,11.80
2017,05,23,03,17,11.80
2017,05,23,03,18,11.80
2017,05,23,03,19,11.80
2017,05,23,03,20,11.80
2017,05,23,03,21,11.80
2017,05,23,03,22,11.80
2017,05,23,03,23,11.80
2017,05,23,03,24,11.70
2017,05,23,03,25,11.70
2017,05,23,03,26,11.60
2017,05,23,03,27,11.50
2017,05,23,03,28,11.40
2017,05,23,03,29,11.40
2017,05,23,03,30,11.40
2017,05,23,03,31,11.40
2017,05,23,03,32,11.40
2017,05,23,03,33,11.40
2017,05,23,03,34,11.40
2017,05,23,03,35,11.40
2017,05,23,03,36,11.40
2017,05,23,03,37,11.40
2017,05,23,03,38,11.40
2017,05,23,03,39,11.40
2017,05,23,03,40,11.40
2017,05,23,03,41,11.40
2017,05,23,03,42,11.40
2017,05,23,03,43,11.40
2017,05,23,03,44,11.40
2017,05,23,03,45,11.40
2017,05,23,03,46,11.40
2017,05,23,03,47,11.40
2017,05,23,03,48,11.50
2017,05,23,03,49,11.50
2017,05,23,03,50,11.50
2017,05,23,03,51,11.50
2017,05,23,03,52,11.40
2017,05,23,03,53,11.40
2017,05,23,03,54,11.30
2017,05,23,03,55,11.30
2017,05,23,03,56,11.30
2017,05,23,03,57,11.30
2017,05,23,03,58,11.30
2017,05,23,03,59,11.30
2017,05,23,04,00,11.30
2017,05,23,04,01,11.30
2017,05,23,04,02,11.30
2017,05,23,04,03,11.20
2017,05,23,04,04,11.20
2017,05,23,04,05,11.20
2017,05,23,04,06,11.10
2017,05,23,04,07,11.10
2017,05,23,04,08,11.00
2017,05,23,04,09,11.00
2017,05,23,04,10,10.90
2017,05,23,04,11,10.90
2017,05,23,04,12,10.90
2017,05,23,04,13,10.90
2017,05,23,04,14,10.90
2017,05,23,04,15,10.90
2017,05,23,04,16,10.90
2017,05,23,04,17,10.90
2017,05,23,04,18,10.90
2017,05,23,04,19,10.90
2017,05,23,04,20,10.80
2017,05,23,04,21,10.80
2017,05,23,04,22,10.70
2017,05,23,04,23,10.70
2017,05,23,04,24,10.70
2017,05,23,04,25,10.70
2017,05,23,04,26,10.70
2017,05,23,04,27,10.70
2017,05,23,04,28,10.70
2017,05,23,04,29,10.70
2017,05,23,04,30,10.70
2017,05,23,04,31,10.70
2017,05,23,04,32,10.70
2017,05,23,04,33,10.70
2017,05,23,04,34,10.70
2017,05,23,04,35,10.60
2017,05,23,04,36,10.60
2017,05,23,04,37,10.60
2017,05,23,04,38,10.60
2017,05,23,04,39,10.50
2017,05,23,04,40,10.50
2017,05,23,04,41,10.50
2017,05,23,04,42,10.50
2017,05,23,04,43,10.50
2017,05,23,04,44,10.50
2017,05,23,04,45,10.50
2017,05,23,04,46,10.60
2017,05,23,04,47,10.60
2017,05,23,04,48,10.60
2017,05,23,04,49,10.60
2017,05,23,04,50,10.60
2017,05,23,04,51,10.60
2017,05,23,04,52,10.60
2017,05,23,04,53,10.60
2017,05,23,04,54,10.60
2017,05,23,04,55,10.60
2017,05,23,04,56,10.60
2017,05,23,04,57,10.60
2017,05,23,04,58,10.60
2017,05,23,04,59,10.60
2017,05,23,05,00,10.60
2017,05,23,05,01,10.50
2017,05,23,05,02,10.40
2017,05,23,05,03,10.30
2017,05,23,05,04,10.30
2017,05,23,05,05,10.20
2017,05,23,05,06,10.20
2017,05,23,05,07,10.20
2017,05,23,05,08,10.20
2017,05,23,05,09,10.20
2017,05,23,05,10,10.20
2017,05,23,05,11,10.20
2017,05,23,05,12,10.20
2017,05,23,05,13,10.20
2017,05,23,05,14,10.10
2017,05,23,05,15,10.10
2017,05,23,05,16,10.10
2017,05,23,05,17,10.00
2017,05,23,05,18,10.00
2017,05,23,05,19,10.00
2017,05,23,05,20,10.00
2017,05,23,05,21,10.00
2017,05,23,05,22,10.10
2017,05,23,05,23,10.10
2017,05,23,05,24,10.10
2017,05,23,05,25,10.10
2017,05,23,05,26,10.10
2017,05,23,05,27,10.10
2017,05,23,05,28,10.10
2017,05,23,05,29,10.10
2017,05,23,05,30,10.10
2017,05,23,05,31,10.10
2017,05,23,05,32,10.10
2017,05,23,05,33,10.10
2017,05,23,05,34,10.10
2017,05,23,05,35,10.10
2017,05,23,05,36,10.10
2017,05,23,05,37,10.20
2017,05,23,05,38,10.20
2017,05,23,05,39,10.20
2017,05,23,05,40,10.20
2017,05,23,05,41,10.20
2017,05,23,05,42,10.20
2017,05,23,05,43,10.20
2017,05,23,05,44,10.10
2017,05,23,05,45,10.10
2017,05,23,05,46,10.10
2017,05,23,05,47,10.10
2017,05,23,05,48,10.10
2017,05,23,05,49,10.10
2017,05,23,05,50,10.10
2017,05,23,05,51,10.10
2017,05,23,05,52,10.10
2017,05,23,05,53,10.10
2017,05,23,05,54,10.10
2017,05,23,05,55,10.10
2017,05,23,05,56,10.00
2017,05,23,05,57,9.90
2017,05,23,05,58,9.80
2017,05,23,05,59,9.70
2017,05,23,06,00,9.70
2017,05,23,06,01,9.70
2017,05,23,06,02,9.70
2017,05,23,06,03,9.70
2017,05,23,06,04,9.70
2017,05,23,06,05,9.70
2017,05,23,06,06,9.70
2017,05,23,06,07,9.70
2017,05,23,06,08,9.70
2017,05,23,06,09,9.80
2017,05,23,06,10,9.80
2017,05,23,06,11,9.80
2017,05,23,06,12,9.80
2017,05,23,06,13,9.90
2017,05,23,06,14,9.90
2017,05,23,06,15,9.90
2017,05,23,06,16,9.90
2017,05,23,06,17,10.00
2017,05,23,06,18,10.00
2017,05,23,06,19,10.00
2017,05,23,06,20,10.10
2017,05,23,06,21,10.10
2017,05,23,06,22,10.10
2017,05,23,06,23,10.10
2017,05,23,06,24,10.20
2017,05,23,06,25,10.20
2017,05,23,06,26,10.20
2017,05,23,06,27,10.30
2017,05,23,06,28,10.30
2017,05,23,06,29,10.30
2017,05,23,06,30,10.30
2017,05,23,06,31,10.30
2017,05,23,06,32,10.40
2017,05,23,06,33,10.40
2017,05,23,06,34,10.40
2017,05,23,06,35,10.40
2017,05,23,06,36,10.50
2017,05,23,06,37,10.50
2017,05,23,06,38,10.60
2017,05,23,06,39,10.60
2017,05,23,06,40,10.70
2017,05,23,06,41,10.70
2017,05,23,06,42,10.70
2017,05,23,06,43,10.80
2017,05,23,06,44,10.80
2017,05,23,06,45,10.80
2017,05,23,06,46,10.90
2017,05,23,06,47,10.90
2017,05,23,06,48,11.00
2017,05,23,06,49,11.00
2017,05,23,06,50,11.00
2017,05,23,06,51,11.10
2017,05,23,06,52,11.10
2017,05,23,06,53,11.20
2017,05,23,06,54,11.30
2017,05,23,06,55,11.30
2017,05,23,06,56,11.40
2017,05,23,06,57,11.50
2017,05,23,06,58,11.60
2017,05,23,06,59,11.60
2017,05,23,07,00,11.70
2017,05,23,07,01,11.70
2017,05,23,07,02,11.70
2017,05,23,07,03,11.80
2017,05,23,07,04,11.80
2017,05,23,07,05,11.90
2017,05,23,07,06,11.90
2017,05,23,07,07,12.00
2017,05,23,07,08,12.10
2017,05,23,07,09,12.10
2017,05,23,07,10,12.20
2017,05,23,07,11,12.20
2017,05,23,07,12,12.40
2017,05,23,07,13,12.50
2017,05,23,07,14,12.60
2017,05,23,07,15,12.70
2017,05,23,07,16,12.80
2017,05,23,07,17,12.90
2017,05,23,07,18,12.90
2017,05,23,07,19,13.00
2017,05,23,07,20,13.10
2017,05,23,07,21,13.10
2017,05,23,07,22,13.20
2017,05,23,07,23,13.30
2017,05,23,07,24,13.30
2017,05,23,07,25,13.30
2017,05,23,07,26,13.40
2017,05,23,07,27,13.40
2017,05,23,07,28,13.50
2017,05,23,07,29,13.50
2017,05,23,07,30,13.60
2017,05,23,07,31,13.60
2017,05,23,07,32,13.70
2017,05,23,07,33,13.70
2017,05,23,07,34,13.80
2017,05,23,07,35,13.80
2017,05,23,07,36,13.90
2017,05,23,07,37,14.00
2017,05,23,07,38,14.00
2017,05,23,07,39,14.10
2017,05,23,07,40,14.10
2017,05,23,07,41,14.20
2017,05,23,07,42,14.20
2017,05,23,07,43,14.30
2017,05,23,07,44,14.40
2017,05,23,07,45,14.50
2017,05,23,07,46,14.70
2017,05,23,07,47,14.80
2017,05,23,07,48,14.90
2017,05,23,07,49,15.10
2017,05,23,07,50,15.20
2017,05,23,07,51,15.30
2017,05,23,07,52,15.30
2017,05,23,07,53,15.30
2017,05,23,07,54,15.40
2017,05,23,07,55,15.40
2017,05,23,07,56,15.50
2017,05,23,07,57,15.50
2017,05,23,07,58,15.60
2017,05,23,07,59,15.60
2017,05,23,08,00,15.70
2017,05,23,08,01,15.80
2017,05,23,08,02,15.90
2017,05,23,08,03,16.00
2017,05,23,08,04,16.10
2017,05,23,08,05,16.20
2017,05,23,08,06,16.20
2017,05,23,08,07,16.30
2017,05,23,08,08,16.40
2017,05,23,08,09,16.50
2017,05,23,08,10,16.50
2017,05,23,08,11,16.60
2017,05,23,08,12,16.70
2017,05,23,08,13,16.70
2017,05,23,08,14,16.80
2017,05,23,08,15,16.90
2017,05,23,08,16,16.90
2017,05,23,08,17,17.00
2017,05,23,08,18,17.10
2017,05,23,08,19,17.10
2017,05,23,08,20,17.20
2017,05,23,08,21,17.20
2017,05,23,08,22,17.30
2017,05,23,08,23,17.40
2017,05,23,08,24,17.40
2017,05,23,08,25,17.40
2017,05,23,08,26,17.40
2017,05,23,08,27,17.50
2017,05,23,08,28,17.50
2017,05,23,08,29,17.60
2017,05,23,08,30,17.60
2017,05,23,08,31,17.70
2017,05,23,08,32,17.70
2017,05,23,08,33,17.80
2017,05,23,08,34,17.80
2017,05,23,08,35,17.80
2017,05,23,08,36,17.90
2017,05,23,08,37,17.90
2017,05,23,08,38,17.90
2017,05,23,08,39,18.00
2017,05,23,08,40,18.00
2017,05,23,08,41,18.10
2017,05,23,08,42,18.10
2017,05,23,08,43,18.10
2017,05,23,08,44,18.10
2017,05,23,08,45,18.00
2017,05,23,08,46,18.00
2017,05,23,08,47,18.00
2017,05,23,08,48,18.00
2017,05,23,08,49,18.10
2017,05,23,08,50,18.10
2017,05,23,08,51,18.20
2017,05,23,08,52,18.30
2017,05,23,08,53,18.30
2017,05,23,08,54,18.30
2017,05,23,08,55,18.30
2017,05,23,08,56,18.40
2017,05,23,08,57,18.40
2017,05,23,08,58,18.40
2017,05,23,08,59,18.50
2017,05,23,09,00,18.60
2017,05,23,09,01,18.60
2017,05,23,09,02,18.60
2017,05,23,09,03,18.70
2017,05,23,09,04,18.70
2017,05,23,09,05,18.70
2017,05,23,09,06,18.70
2017,05,23,09,07,18.70
2017,05,23,09,08,18.70
2017,05,23,09,09,18.70
2017,05,23,09,10,18.70
2017,05,23,09,11,18.70
2017,05,23,09,12,18.70
2017,05,23,09,13,18.70
2017,05,23,09,14,18.70
2017,05,23,09,15,18.70
2017,05,23,09,16,18.80
2017,05,23,09,17,18.80
2017,05,23,09,18,18.80
2017,05,23,09,19,18.80
2017,05,23,09,20,18.80
2017,05,23,09,21,18.90
2017,05,23,09,22,18.90
2017,05,23,09,23,18.90
2017,05,23,09,24,18.90
2017,05,23,09,25,18.80
2017,05,23,09,26,18.80
2017,05,23,09,27,18.80
2017,05,23,09,28,18.80
2017,05,23,09,29,18.80
2017,05,23,09,30,18.80
2017,05,23,09,31,18.80
2017,05,23,09,32,18.80
2017,05,23,09,33,18.80
2017,05,23,09,34,18.70
2017,05,23,09,35,18.70
2017,05,23,09,36,18.70
2017,05,23,09,37,18.80
2017,05,23,09,38,18.90
2017,05,23,09,39,18.90
2017,05,23,09,40,19.00
2017,05,23,09,41,19.00
2017,05,23,09,42,19.10
2017,05,23,09,43,19.10
2017,05,23,09,44,19.20
2017,05,23,09,45,19.30
2017,05,23,09,46,19.30
2017,05,23,09,47,19.30
2017,05,23,09,48,19.40
2017,05,23,09,49,19.40
2017,05,23,09,50,19.40
2017,05,23,09,51,19.40
2017,05,23,09,52,19.50
2017,05,23,09,53,19.60
2017,05,23,09,54,19.60
2017,05,23,09,55,19.60
2017,05,23,09,56,19.60
2017,05,23,09,57,19.60
2017,05,23,09,58,19.60
2017,05,23,09,59,19.60
2017,05,23,10,00,19.70
2017,05,23,10,01,19.80
2017,05,23,10,02,19.80
2017,05,23,10,03,20.00
2017,05,23,10,04,20.10
2017,05,23,10,05,20.20
2017,05,23,10,06,20.20
2017,05,23,10,07,20.30
2017,05,23,10,08,20.30
2017,05,23,10,09,20.40
2017,05,23,10,10,20.40
2017,05,23,10,11,20.30
2017,05,23,10,12,20.30
2017,05,23,10,13,20.20
2017,05,23,10,14,20.20
2017,05,23,10,15,20.30
2017,05,23,10,16,20.30
2017,05,23,10,17,20.30
2017,05,23,10,18,20.40
2017,05,23,10,19,20.40
2017,05,23,10,20,20.40
2017,05,23,10,21,20.20
2017,05,23,10,22,20.10
2017,05,23,10,23,20.00
2017,05,23,10,24,19.90
2017,05,23,10,25,19.90
2017,05,23,10,26,19.80
2017,05,23,10,27,19.80
2017,05,23,10,28,19.90
2017,05,23,10,29,19.90
2017,05,23,10,30,19.90
2017,05,23,10,31,20.00
2017,05,23,10,32,20.00
2017,05,23,10,33,20.00
2017,05,23,10,34,19.90
2017,05,23,10,35,20.00
2017,05,23,10,36,20.10
2017,05,23,10,37,20.10
2017,05,23,10,38,20.10
2017,05,23,10,39,20.10
2017,05,23,10,40,20.00
2017,05,23,10,41,19.90
2017,05,23,10,42,20.00
2017,05,23,10,43,20.00
2017,05,23,10,44,20.10
2017,05,23,10,45,20.20
2017,05,23,10,46,20.20
2017,05,23,10,47,20.20
2017,05,23,10,48,20.20
2017,05,23,10,49,20.20
2017,05,23,10,50,20.20
2017,05,23,10,51,20.20
2017,05,23,10,52,20.20
2017,05,23,10,53,20.20
2017,05,23,10,54,20.20
2017,05,23,10,55,20.20
2017,05,23,10,56,20.20
2017,05,23,10,57,20.30
2017,05,23,10,58,20.30
2017,05,23,10,59,20.40
2017,05,23,11,00,20.60
2017,05,23,11,01,20.70
2017,05,23,11,02,20.80
2017,05,23,11,03,20.80
2017,05,23,11,04,20.80
2017,05,23,11,05,20.80
2017,05,23,11,06,20.80
2017,05,23,11,07,20.70
2017,05,23,11,08,20.70
2017,05,23,11,09,20.60
2017,05,23,11,10,20.60
2017,05,23,11,11,20.50
2017,05,23,11,12,20.50
2017,05,23,11,13,20.50
2017,05,23,11,14,20.50
2017,05,23,11,15,20.50
2017,05,23,11,16,20.50
2017,05,23,11,17,20.50
2017,05,23,11,18,20.40
2017,05,23,11,19,20.30
2017,05,23,11,20,20.40
2017,05,23,11,21,20.40
2017,05,23,11,22,20.50
2017,05,23,11,23,20.50
2017,05,23,11,24,20.60
2017,05,23,11,25,20.70
2017,05,23,11,26,20.70
2017,05,23,11,27,20.70
2017,05,23,11,28,20.80
2017,05,23,11,29,20.80
2017,05,23,11,30,20.70
2017,05,23,11,31,20.70
2017,05,23,11,32,20.60
2017,05,23,11,33,20.60
2017,05,23,11,34,20.60
2017,05,23,11,35,20.60
2017,05,23,11,36,20.60
2017,05,23,11,37,20.60
2017,05,23,11,38,20.60
2017,05,23,11,39,20.60
2017,05,23,11,40,20.60
2017,05,23,11,41,20.70
2017,05,23,11,42,20.80
2017,05,23,11,43,20.90
2017,05,23,11,44,20.90
2017,05,23,11,45,20.90
2017,05,23,11,46,21.00
2017,05,23,11,47,20.90
2017,05,23,11,48,20.80
2017,05,23,11,49,20.70
2017,05,23,11,50,20.70
2017,05,23,11,51,20.70
2017,05,23,11,52,20.70
2017,05,23,11,53,20.80
2017,05,23,11,54,20.80
2017,05,23,11,55,20.80
2017,05,23,11,56,20.80
2017,05,23,11,57,20.70
2017,05,23,11,58,20.70
2017,05,23,11,59,20.80
2017,05,23,12,00,20.80
2017,05,23,12,01,20.80
2017,05,23,12,02,20.80
2017,05,23,12,03,20.80
2017,05,23,12,04,20.80
2017,05,23,12,05,20.80
2017,05,23,12,06,20.80
2017,05,23,12,07,20.90
2017,05,23,12,08,20.90
2017,05,23,12,09,21.00
2017,05,23,12,10,21.10
2017,05,23,12,11,21.10
2017,05,23,12,12,21.10
2017,05,23,12,13,21.00
2017,05,23,12,14,20.90
2017,05,23,12,15,20.90
2017,05,23,12,16,20.90
2017,05,23,12,17,21.00
2017,05,23,12,18,21.10
2017,05,23,12,19,21.00
2017,05,23,12,20,20.70
2017,05,23,12,21,20.50
2017,05,23,12,22,20.40
2017,05,23,12,23,20.30
2017,05,23,12,24,20.30
2017,05,23,12,25,20.30
2017,05,23,12,26,20.20
2017,05,23,12,27,20.20
2017,05,23,12,28,20.30
2017,05,23,12,29,20.30
2017,05,23,12,30,20.30
2017,05,23,12,31,20.20
2017,05,23,12,32,20.30
2017,05,23,12,33,20.50
2017,05,23,12,34,20.50
2017,05,23,12,35,20.60
2017,05,23,12,36,20.70
2017,05,23,12,37,20.80
2017,05,23,12,38,20.90
2017,05,23,12,39,20.90
2017,05,23,12,40,20.90
2017,05,23,12,41,21.00
2017,05,23,12,42,21.10
2017,05,23,12,43,21.00
2017,05,23,12,44,20.90
2017,05,23,12,45,20.70
2017,05,23,12,46,20.60
2017,05,23,12,47,20.60
2017,05,23,12,48,20.60
2017,05,23,12,49,20.70
2017,05,23,12,50,20.70
2017,05,23,12,51,20.60
2017,05,23,12,52,20.50
2017,05,23,12,53,20.50
2017,05,23,12,54,20.60
2017,05,23,12,55,20.70
2017,05,23,12,56,20.80
2017,05,23,12,57,20.90
2017,05,23,12,58,21.00
2017,05,23,12,59,20.90
2017,05,23,13,00,20.90
2017,05,23,13,01,20.90
2017,05,23,13,02,20.90
2017,05,23,13,03,21.00
2017,05,23,13,04,21.10
2017,05,23,13,05,21.20
2017,05,23,13,06,21.40
2017,05,23,13,07,21.50
2017,05,23,13,08,21.60
2017,05,23,13,09,21.50
2017,05,23,13,10,21.50
2017,05,23,13,11,21.60
2017,05,23,13,12,21.50
2017,05,23,13,13,21.50
2017,05,23,13,14,21.40
2017,05,23,13,15,21.40
2017,05,23,13,16,21.40
2017,05,23,13,17,21.40
2017,05,23,13,18,21.30
2017,05,23,13,19,21.20
2017,05,23,13,20,21.20
2017,05,23,13,21,21.10
2017,05,23,13,22,21.00
2017,05,23,13,23,21.10
2017,05,23,13,24,21.00
2017,05,23,13,25,20.90
2017,05,23,13,26,20.80
2017,05,23,13,27,20.80
2017,05,23,13,28,20.70
2017,05,23,13,29,20.70
2017,05,23,13,30,20.70
2017,05,23,13,31,20.70
2017,05,23,13,32,20.70
2017,05,23,13,33,20.60
2017,05,23,13,34,20.60
2017,05,23,13,35,20.60
2017,05,23,13,36,20.60
2017,05,23,13,37,20.60
2017,05,23,13,38,20.60
2017,05,23,13,39,20.70
2017,05,23,13,40,20.70
2017,05,23,13,41,20.70
2017,05,23,13,42,20.70
2017,05,23,13,43,20.70
2017,05,23,13,44,20.70
2017,05,23,13,45,20.80
2017,05,23,13,46,20.80
2017,05,23,13,47,20.80
2017,05,23,13,48,20.80
2017,05,23,13,49,20.90
2017,05,23,13,50,20.90
2017,05,23,13,51,20.90
2017,05,23,13,52,20.90
2017,05,23,13,53,20.80
2017,05,23,13,54,20.70
2017,05,23,13,55,20.70
2017,05,23,13,56,20.60
2017,05,23,13,57,20.60
2017,05,23,13,58,20.60
2017,05,23,13,59,20.50
2017,05,23,14,00,20.50
2017,05,23,14,01,20.50
2017,05,23,14,02,20.60
2017,05,23,14,03,20.60
2017,05,23,14,04,20.60
2017,05,23,14,05,20.60
2017,05,23,14,06,20.60
2017,05,23,14,07,20.50
2017,05,23,14,08,20.40
2017,05,23,14,09,20.40
2017,05,23,14,10,20.40
2017,05,23,14,11,20.40
2017,05,23,14,12,20.50
2017,05,23,14,13,20.60
2017,05,23,14,14,20.60
2017,05,23,14,15,20.60
2017,05,23,14,16,20.60
2017,05,23,14,17,20.70
2017,05,23,14,18,20.50
2017,05,23,14,19,20.50
2017,05,23,14,20,20.50
2017,05,23,14,21,20.60
2017,05,23,14,22,20.60
2017,05,23,14,23,20.70
2017,05,23,14,24,20.60
2017,05,23,14,25,20.50
2017,05,23,14,26,20.50
2017,05,23,14,27,20.60
2017,05,23,14,28,20.70
2017,05,23,14,29,20.70
2017,05,23,14,30,20.70
2017,05,23,14,31,20.60
2017,05,23,14,32,20.50
2017,05,23,14,33,20.40
2017,05,23,14,34,20.30
2017,05,23,14,35,20.30
2017,05,23,14,36,20.30
2017,05,23,14,37,20.30
2017,05,23,14,38,20.30
2017,05,23,14,39,20.20
2017,05,23,14,40,20.10
2017,05,23,14,41,20.10
2017,05,23,14,42,20.20
2017,05,23,14,43,20.20
2017,05,23,14,44,20.20
2017,05,23,14,45,20.20
2017,05,23,14,46,20.10
2017,05,23,14,47,20.00
2017,05,23,14,48,19.70
2017,05,23,14,49,19.60
2017,05,23,14,50,19.30
2017,05,23,14,51,19.30
2017,05,23,14,52,19.10
2017,05,23,14,53,19.00
2017,05,23,14,54,18.90
2017,05,23,14,55,18.80
2017,05,23,14,56,18.70
2017,05,23,14,57,18.60
2017,05,23,14,58,18.60
2017,05,23,14,59,18.50
2017,05,23,15,00,18.50
2017,05,23,15,01,18.40
2017,05,23,15,02,18.20
2017,05,23,15,03,18.20
2017,05,23,15,04,18.20
2017,05,23,15,05,18.20
2017,05,23,15,06,18.20
2017,05,23,15,07,18.10
2017,05,23,15,08,18.00
2017,05,23,15,09,17.90
2017,05,23,15,10,18.00
2017,05,23,15,11,18.00
2017,05,23,15,12,17.90
2017,05,23,15,13,17.80
2017,05,23,15,14,17.70
2017,05,23,15,15,17.70
2017,05,23,15,16,17.80
2017,05,23,15,17,17.90
2017,05,23,15,18,18.00
2017,05,23,15,19,18.00
2017,05,23,15,20,18.10
2017,05,23,15,21,18.10
2017,05,23,15,22,18.10
2017,05,23,15,23,18.10
2017,05,23,15,24,18.10
2017,05,23,15,25,18.20
2017,05,23,15,26,18.30
2017,05,23,15,27,18.40
2017,05,23,15,28,18.50
2017,05,23,15,29,18.50
2017,05,23,15,30,18.40
2017,05,23,15,31,18.40
2017,05,23,15,32,18.40
2017,05,23,15,33,18.30
2017,05,23,15,34,18.30
2017,05,23,15,35,18.30
2017,05,23,15,36,18.40
2017,05,23,15,37,18.40
2017,05,23,15,38,18.50
2017,05,23,15,39,18.60
2017,05,23,15,40,18.60
2017,05,23,15,41,18.50
2017,05,23,15,42,18.50
2017,05,23,15,43,18.50
2017,05,23,15,44,18.40
2017,05,23,15,45,18.40
2017,05,23,15,46,18.40
2017,05,23,15,47,18.40
2017,05,23,15,48,18.50
2017,05,23,15,49,18.60
2017,05,23,15,50,18.50
2017,05,23,15,51,18.50
2017,05,23,15,52,18.40
2017,05,23,15,53,18.40
2017,05,23,15,54,18.40
2017,05,23,15,55,18.40
2017,05,23,15,56,18.30
2017,05,23,15,57,18.20
2017,05,23,15,58,18.30
2017,05,23,15,59,18.40
2017,05,23,16,00,18.40
2017,05,23,16,01,18.30
2017,05,23,16,02,18.30
2017,05,23,16,03,18.30
2017,05,23,16,04,18.30
2017,05,23,16,05,18.20
2017,05,23,16,06,18.20
2017,05,23,16,07,18.30
2017,05,23,16,08,18.30
2017,05,23,16,09,18.10
2017,05,23,16,10,18.10
2017,05,23,16,11,18.00
2017,05,23,16,12,17.70
2017,05,23,16,13,17.50
2017,05,23,16,14,17.50
2017,05,23,16,15,17.30
2017,05,23,16,16,17.30
2017,05,23,16,17,17.40
2017,05,23,16,18,17.30
2017,05,23,16,19,17.20
2017,05,23,16,20,17.10
2017,05,23,16,21,17.10
2017,05,23,16,22,17.20
2017,05,23,16,23,17.20
2017,05,23,16,24,17.20
2017,05,23,16,25,17.30
2017,05,23,16,26,17.40
2017,05,23,16,27,17.30
2017,05,23,16,28,17.20
2017,05,23,16,29,17.10
2017,05,23,16,30,17.10
2017,05,23,16,31,17.20
2017,05,23,16,32,17.10
2017,05,23,16,33,17.10
2017,05,23,16,34,17.10
2017,05,23,16,35,17.10
2017,05,23,16,36,17.10
2017,05,23,16,37,17.00
2017,05,23,16,38,17.00
2017,05,23,16,39,17.10
2017,05,23,16,40,16.90
2017,05,23,16,41,16.80
2017,05,23,16,42,16.70
2017,05,23,16,43,16.70
2017,05,23,16,44,16.70
2017,05,23,16,45,16.60
2017,05,23,16,46,16.60
2017,05,23,16,47,16.60
2017,05,23,16,48,16.40
2017,05,23,16,49,16.30
2017,05,23,16,50,16.40
2017,05,23,16,51,16.40
2017,05,23,16,52,16.40
2017,05,23,16,53,16.30
2017,05,23,16,54,16.10
2017,05,23,16,55,16.00
2017,05,23,16,56,16.00
2017,05,23,16,57,15.90
2017,05,23,16,58,16.00
2017,05,23,16,59,16.00
2017,05,23,17,00,16.00
2017,05,23,17,01,15.90
2017,05,23,17,02,16.00
2017,05,23,17,03,15.90
2017,05,23,17,04,15.90
2017,05,23,17,05,15.90
2017,05,23,17,06,16.00
2017,05,23,17,07,15.90
2017,05,23,17,08,15.80
2017,05,23,17,09,15.70
2017,05,23,17,10,15.70
2017,05,23,17,11,15.70
2017,05,23,17,12,15.70
2017,05,23,17,13,15.70
2017,05,23,17,14,15.60
2017,05,23,17,15,15.50
2017,05,23,17,16,15.40
2017,05,23,17,17,15.40
2017,05,23,17,18,15.40
2017,05,23,17,19,15.40
2017,05,23,17,20,15.20